Whiteville, NC

12:39 AM EDT on October 21, 2017 (GMT -0400)
Columbus County Municipal

Weather History for KCPC - February, 2013

Change the Weather History Date:

Wednesday, February 13, 2013

  Actual Average (KCRE) Record (KCRE)
Temperature  
Mean Temperature 39 °F -  
Max Temperature 49 °F 54 °F 73 °F (1949)
Min Temperature 29 °F 37 °F 18 °F (1955)
Degree Days  
Heating Degree Days 26    
Moisture  
Dew Point 38 °F    
Average Humidity 92    
Maximum Humidity 100    
Minimum Humidity 73    
Precipitation  
Precipitation 0.19 in - - ()
Sea Level Pressure  
Sea Level Pressure 29.77 in    
Wind  
Wind Speed 4 mph (SW)    
Max Wind Speed 12 mph    
Max Gust Speed 21 mph    
Visibility 8 miles    
Events Rain    
Averages and records for this station are not official NWS values.
T = Trace of Precipitation, MM = Missing Value Source: NWS Daily Summary

Daily Weather History Graph

Daily Weather History Graph

Search for Another Location

Airport or City:

Trip Planner

Search our weather history database for the weather conditions in past years. The results will help you decide how hot, cold, wet, or windy it might be!

Date:

Astronomy

Feb. 13, 2013 Rise Set
Actual Time 7:01 AM EST 5:56 PM EST
Civil Twilight 6:35 AM EST 6:22 PM EST
Nautical Twilight 6:06 AM EST 6:52 PM EST
Astronomical Twilight 5:37 AM EST 7:21 PM EST
Moon 8:42 AM EST (2/13) 9:44 PM EST (2/13)
Length of Visible Light 11h 46m
Length of Day
10h 55m
Waxing Crescent, 13% of the Moon is Illuminated
Feb 13
Waxing Crescent
Feb 17
First Quarter
Feb 25
Full
Mar 4
Last Quarter
Mar 11
New

Hourly Weather History & Observations

Time (EST) Temp. Windchill Dew Point Humidity Pressure Visibility Wind Dir Wind Speed Gust Speed Precip Events Conditions
12:15 AM 48.0 °F - 47.5 °F 98% 29.96 in 5.0 mi Calm Calm - 0.02 in Rain Rain
12:35 AM 47.7 °F - 47.3 °F 99% 29.92 in 5.0 mi NE 5.8 mph - 0.05 in Rain Light Rain
12:55 AM 46.6 °F - 45.9 °F 97% 29.91 in 7.0 mi NE 6.9 mph - 0.07 in Rain Rain
1:15 AM 45.9 °F 42.9 °F 44.8 °F 96% 29.90 in 10.0 mi NE 5.8 mph - 0.02 in Rain Light Rain
1:35 AM 45.5 °F 41.8 °F 43.0 °F 91% 29.90 in 10.0 mi NE 6.9 mph - 0.03 in Rain Light Rain
1:55 AM 45.0 °F 43.5 °F 42.1 °F 90% 29.88 in 7.0 mi NE 3.5 mph - 0.05 in Rain Rain
2:15 AM 44.6 °F 43.1 °F 42.4 °F 92% 29.88 in 10.0 mi ENE 3.5 mph - N/A Rain Light Rain
2:35 AM 44.6 °F 43.1 °F 43.0 °F 94% 29.88 in 7.0 mi ENE 3.5 mph - 0.02 in Rain Rain
2:55 AM 44.6 °F 42.2 °F 43.3 °F 95% 29.86 in 10.0 mi ENE 4.6 mph - 0.04 in Rain Rain
3:15 AM 44.6 °F 43.1 °F 43.3 °F 95% 29.84 in 10.0 mi East 3.5 mph - N/A   Light Drizzle
3:35 AM 44.2 °F 41.0 °F 43.3 °F 97% 29.82 in 10.0 mi NE 5.8 mph - 0.01 in Rain Rain
3:55 AM 43.7 °F 39.1 °F 43.0 °F 97% 29.79 in 10.0 mi East 8.1 mph - 0.02 in Rain Rain
4:15 AM 42.6 °F 39.9 °F 41.7 °F 97% 29.79 in 10.0 mi NE 4.6 mph - N/A   Light Drizzle
4:35 AM 42.1 °F 39.2 °F 41.4 °F 97% 29.80 in 10.0 mi East 4.6 mph - N/A   Overcast
4:55 AM 41.9 °F 39.0 °F 41.0 °F 97% 29.80 in 5.0 mi East 4.6 mph - N/A   Overcast
5:15 AM 41.5 °F - 41.0 °F 98% 29.81 in 7.0 mi Calm Calm - N/A   Overcast
5:35 AM 41.5 °F 38.6 °F 41.0 °F 98% 29.81 in 10.0 mi NE 4.6 mph - N/A   Overcast
5:55 AM 41.0 °F 38.0 °F 40.3 °F 97% 29.81 in 10.0 mi NE 4.6 mph - N/A   Overcast
6:15 AM 40.5 °F 36.5 °F 39.9 °F 98% 29.79 in 10.0 mi ENE 5.8 mph - N/A   Overcast
6:35 AM 40.5 °F 37.3 °F 39.7 °F 97% 29.80 in 10.0 mi NE 4.6 mph - N/A   Overcast
6:55 AM 40.1 °F 36.1 °F 39.4 °F 97% 29.79 in 2.5 mi East 5.8 mph - N/A Rain Rain
7:15 AM 39.6 °F 37.4 °F 38.8 °F 97% 29.78 in 3.0 mi NE 3.5 mph - N/A   Light Drizzle
7:35 AM 38.3 °F - 37.6 °F 97% 29.79 in 3.0 mi Calm Calm - N/A   Overcast
7:55 AM 37.4 °F 33.8 °F 36.9 °F 98% 29.77 in 2.0 mi NE 4.6 mph - N/A   Overcast
8:15 AM 36.3 °F 33.7 °F 36.0 °F 99% 29.78 in 1.8 mi North 3.5 mph - N/A   Overcast
8:35 AM 35.6 °F 32.8 °F 35.1 °F 98% 29.78 in 1.5 mi NNE 3.5 mph - N/A   Overcast
8:55 AM 33.6 °F - 33.3 °F 99% 29.80 in 1.5 mi Calm Calm - N/A   Overcast
9:15 AM 33.3 °F - 32.9 °F 99% 29.80 in 1.5 mi Calm Calm - N/A   Overcast
9:35 AM 31.1 °F - 30.7 °F 99% 29.80 in 2.0 mi Calm Calm - N/A   Overcast
9:55 AM 30.7 °F 27.3 °F 30.2 °F 98% 29.78 in 2.0 mi NE 3.5 mph - N/A   Overcast
10:15 AM 29.8 °F - 29.3 °F 98% 29.77 in 2.0 mi Calm Calm - N/A   Overcast
10:35 AM 30.0 °F 26.5 °F 29.7 °F 99% 29.75 in 2.5 mi East 3.5 mph - N/A   Overcast
10:55 AM 30.2 °F 25.4 °F 29.8 °F 99% 29.74 in 3.0 mi East 4.6 mph - N/A   Overcast
11:15 AM 30.4 °F - 30.0 °F 99% 29.76 in 7.0 mi Calm Calm - N/A   Overcast
11:35 AM 30.6 °F - 30.2 °F 99% 29.75 in 10.0 mi Calm Calm - N/A   Overcast
11:55 AM 30.9 °F 27.5 °F 30.6 °F 99% 29.74 in 10.0 mi SSE 3.5 mph - N/A   Overcast
12:15 PM 31.1 °F - 30.9 °F 99% 29.73 in 2.5 mi Calm Calm - N/A   Overcast
12:35 PM 31.6 °F - 31.1 °F 98% 29.71 in 2.0 mi Calm Calm - N/A   Overcast
12:55 PM 32.0 °F - 31.6 °F 99% 29.71 in 3.0 mi Calm Calm - N/A   Overcast
1:15 PM 32.0 °F 27.5 °F 31.6 °F 99% 29.70 in 3.0 mi SSW 4.6 mph - N/A   Overcast
1:35 PM 32.0 °F 26.4 °F 32.0 °F 100% 29.67 in 2.0 mi SSW 5.8 mph - N/A   Overcast
1:55 PM 32.5 °F 25.5 °F 32.2 °F 99% 29.68 in 5.0 mi SW 8.1 mph 19.6 mph N/A   Overcast
2:15 PM 33.3 °F 25.7 °F 32.7 °F 98% 29.66 in 7.0 mi SSW 9.2 mph - N/A   Overcast
2:35 PM 33.4 °F 25.4 °F 32.5 °F 96% 29.68 in 7.0 mi SSW 10.4 mph - N/A   Overcast
2:55 PM 34.2 °F 26.8 °F 32.7 °F 94% 29.68 in 10.0 mi SW 9.2 mph 17.3 mph N/A   Overcast
3:15 PM 34.7 °F 26.4 °F 32.5 °F 92% 29.68 in 10.0 mi SW 11.5 mph 18.4 mph N/A   Overcast
3:35 PM 34.9 °F 27.1 °F 32.4 °F 91% 29.66 in 10.0 mi SSW 10.4 mph - N/A   Mostly Cloudy
3:55 PM 35.6 °F 28.6 °F 32.0 °F 87% 29.68 in 10.0 mi SW 9.2 mph - N/A   Scattered Clouds
4:15 PM 35.6 °F 28.0 °F 31.6 °F 85% 29.66 in 10.0 mi WSW 10.4 mph - N/A   Scattered Clouds
4:35 PM 35.4 °F 30.5 °F 32.0 °F 87% 29.68 in 10.0 mi West 5.8 mph - N/A   Mostly Cloudy
4:55 PM 34.9 °F 29.9 °F 31.6 °F 88% 29.69 in 10.0 mi WSW 5.8 mph - N/A   Mostly Cloudy
5:15 PM 34.9 °F 29.9 °F 31.1 °F 86% 29.71 in 10.0 mi West 5.8 mph - N/A   Mostly Cloudy
5:35 PM 34.9 °F 30.8 °F 31.3 °F 87% 29.71 in 10.0 mi SW 4.6 mph - N/A   Scattered Clouds
5:55 PM 36.7 °F - 32.9 °F 86% 29.71 in 10.0 mi Calm Calm - N/A   Clear
6:15 PM 40.1 °F 33.2 °F 36.3 °F 86% 29.71 in 10.0 mi SW 11.5 mph 17.3 mph N/A   Drizzle
6:35 PM 45.1 °F 40.8 °F 37.9 °F 76% 29.72 in 10.0 mi SW 8.1 mph 17.3 mph N/A Rain Rain
6:55 PM 48.2 °F - 42.4 °F 80% 29.73 in 10.0 mi West 6.9 mph - N/A Rain Rain
7:15 PM 45.3 °F 41.1 °F 39.6 °F 80% 29.75 in 10.0 mi SW 8.1 mph 17.3 mph 0.01 in Rain Light Rain
7:35 PM 46.8 °F - 40.1 °F 78% 29.72 in 10.0 mi SW 8.1 mph 20.7 mph 0.01 in   Clear
7:55 PM 47.7 °F - 39.6 °F 73% 29.75 in 10.0 mi WSW 9.2 mph 18.4 mph 0.01 in   Clear
8:15 PM 48.2 °F - 39.9 °F 73% 29.74 in 10.0 mi WSW 6.9 mph - N/A Rain Light Rain
8:35 PM 48.4 °F - 41.0 °F 76% 29.77 in 10.0 mi WSW 5.8 mph - N/A   Clear
8:55 PM 48.7 °F - 41.9 °F 77% 29.78 in 10.0 mi WSW 9.2 mph - N/A   Clear
9:15 PM 49.1 °F - 42.4 °F 78% 29.77 in 10.0 mi West 8.1 mph - N/A   Clear
9:35 PM 49.1 °F - 43.2 °F 80% 29.79 in 10.0 mi WSW 9.2 mph - N/A   Clear
9:55 PM 49.1 °F - 43.9 °F 82% 29.79 in 10.0 mi WSW 6.9 mph - N/A   Clear
10:15 PM 48.7 °F - 44.2 °F 84% 29.81 in 10.0 mi Calm Calm - N/A   Clear
10:35 PM 48.4 °F - 44.4 °F 86% 29.81 in 10.0 mi West 3.5 mph - N/A   Clear
10:55 PM 48.2 °F - 44.6 °F 87% 29.81 in 10.0 mi West 4.6 mph - N/A   Clear
11:15 PM 48.0 °F - 44.6 °F 88% 29.82 in 10.0 mi WSW 3.5 mph - N/A   Clear
11:35 PM 48.0 °F - 44.8 °F 89% 29.83 in 10.0 mi WSW 3.5 mph - N/A   Scattered Clouds
11:55 PM 48.2 °F - 45.0 °F 89% 29.84 in 10.0 mi West 3.5 mph - N/A   Mostly Cloudy